Location: La Chapelle
(48.3135°N, 1.3085°W)
Time: 02:37:11
(UTC+00:00)

ERBS - Pass Details

Date: 03 March 2021
Orbit: 408 x 412 km, 57.0° (Epoch: 12 April)

Event Time Altitude Azimuth Distance (km) Brightness Sun altitude
Rises 18:55:26 0° 252° (WSW) 2,347 7.5 -11.2°
Reaches altitude 10° 18:57:35 10° 260° (W) 1,486 6.4 -11.6°
Maximum altitude 19:00:45 41° 333° (NNW) 618 3.3 -12.1°
Enters shadow 19:03:43 11° 44° (NE) 1,414 4.5 -12.6°
